GW3646 Weather Reports


Display with metric or nautical units.
time (UTC)temp
F
wind
direction
speed
MPH
gust
MPH
rain 1hr
in
rain 24hr
in
rain mn
in
humidity
%
barometer
mb
20260831042014 85 261 1.0 6.0 0.00 0.00 0.00 48 1012.3
20260831041531 85 283 0.0 4.0 0.00 0.00 0.00 47 1012.3
20260831041015 85 313 1.0 4.0 0.00 0.00 0.00 47 1012.3
20260831040518 85 256 1.0 4.0 0.00 0.00 0.00 47 1012.3
20260831040035 85 217 0.0 4.0 0.00 0.00 0.00 47 1012.4
20260831035517 86 184 0.0 4.0 0.00 0.00 0.00 47 1012.3
20260831035016 86 196 0.0 3.0 0.00 0.00 0.00 46 1012.3
20260831034516 86 169 1.0 4.0 0.00 0.00 0.00 46 1012.3
20260831034008 86 273 0.0 4.0 0.00 0.00 0.00 45 1012.3
20260831033511 87 265 1.0 3.0 0.00 0.00 0.00 45 1012.3
20260831033032 87 194 1.0 5.0 0.00 0.00 0.00 45 1012.2
20260831032512 87 140 0.0 5.0 0.00 0.00 0.00 45 1012.2
20260831032014 87 292 0.0 4.0 0.00 0.00 0.00 45 1012.2
20260831031537 87 237 0.0 7.0 0.00 0.00 0.00 45 1012.2
20260831031014 88 267 0.0 7.0 0.00 0.00 0.00 45 1012.1
20260831030505 88 275 1.0 3.0 0.00 0.00 0.00 44 1012.1
20260831030008 88 179 0.0 4.0 0.00 0.00 0.00 44 1012.1
20260831025503 88 285 0.0 4.0 0.00 0.00 0.00 44 1012.1
20260831025010 88 141 1.0 4.0 0.00 0.00 0.00 44 1012.1
20260831024511 88 260 0.0 6.0 0.00 0.00 0.00 44 1012.0
20260831024007 88 316 1.0 6.0 0.00 0.00 0.00 44 1011.9
20260831023508 88 277 1.0 4.0 0.00 0.00 0.00 44 1011.9
20260831023020 88 290 2.0 4.0 0.00 0.00 0.00 44 1011.8
20260831022511 88 257 1.0 2.0 0.00 0.00 0.00 44 1011.7
20260831022013 88 257 0.0 2.0 0.00 0.00 0.00 44 1011.7
20260831021504 88 257 0.0 2.0 0.00 0.00 0.00 43 1011.7
20260831021004 89 217 0.0 2.0 0.00 0.00 0.00 42 1011.6
20260831020503 89 263 0.0 2.0 0.00 0.00 0.00 42 1011.5
20260831020006 89 263 0.0 3.0 0.00 0.00 0.00 41 1011.3
20260831015504 90 263 0.0 3.0 0.00 0.00 0.00 41 1011.2
20260831015009 90 241 0.0 0.0 0.00 0.00 0.00 40 1011.1
20260831014507 91 241 0.0 2.0 0.00 0.00 0.00 40 1011.1
20260831014004 91 230 0.0 3.0 0.00 0.00 0.00 40 1011.0
20260831013508 91 253 0.0 3.0 0.00 0.00 0.00 39 1011.0
20260831013016 92 185 0.0 4.0 0.00 0.00 0.00 38 1010.9
20260831012508 92 244 1.0 4.0 0.00 0.00 0.00 38 1010.9
20260831012010 92 109 0.0 3.0 0.00 0.00 0.00 38 1010.8
20260831011519 93 217 1.0 3.0 0.00 0.00 0.00 37 1010.8
20260831011011 93 271 0.0 4.0 0.00 0.00 0.00 37 1010.8
20260831010510 94 233 0.0 4.0 0.00 0.00 0.00 37 1010.8
20260831010004 94 213 0.0 4.0 0.00 0.00 0.00 36 1010.7
20260831005503 94 278 0.0 8.0 0.00 0.00 0.00 36 1010.7
20260831005009 95 247 1.0 8.0 0.00 0.00 0.00 36 1010.8
20260831004508 95 251 1.0 7.0 0.00 0.00 0.00 36 1010.7
20260831004009 95 302 2.0 10.0 0.00 0.00 0.00 36 1010.7
20260831003504 96 302 3.0 10.0 0.00 0.00 0.00 36 1010.7
20260831003014 96 281 1.0 6.0 0.00 0.00 0.00 36 1010.7
20260831002508 96 262 1.0 7.0 0.00 0.00 0.00 36 1010.6
20260831002007 97 281 1.0 10.0 0.00 0.00 0.00 35 1010.7
20260831001518 97 243 2.0 10.0 0.00 0.00 0.00 35 1010.7
20260831001010 97 15 2.0 9.0 0.00 0.00 0.00 35 1010.7
20260831000513 97 235 0.0 10.0 0.00 0.00 0.00 35 1010.7
20260831000027 98 189 1.0 10.0 0.00 0.00 0.00 34 1010.7
20260830235510 98 271 2.0 11.0 0.00 0.00 0.00 34 1010.7
20260830235012 98 197 2.0 11.0 0.00 0.00 0.00 34 1010.6
20260830234504 99 270 4.0 11.0 0.00 0.00 0.00 34 1010.6
20260830234004 99 277 2.0 8.0 0.00 0.00 0.00 34 1010.6
20260830233503 100 252 2.0 11.0 0.00 0.00 0.00 33 1010.5
20260830233008 100 121 2.0 11.0 0.00 0.00 0.00 34 1010.5
20260830232507 100 225 3.0 10.0 0.00 0.00 0.00 33 1010.4
20260830232008 100 258 3.0 10.0 0.00 0.00 0.00 32 1010.4
20260830231514 101 352 2.0 10.0 0.00 0.00 0.00 32 1010.4
20260830231009 101 258 3.0 10.0 0.00 0.00 0.00 32 1010.3
20260830230507 101 252 3.0 11.0 0.00 0.00 0.00 32 1010.3
20260830230021 101 221 5.0 11.0 0.00 0.00 0.00 32 1010.3
20260830225512 102 207 3.0 9.0 0.00 0.00 0.00 32 1010.2
20260830225010 102 232 3.0 9.0 0.00 0.00 0.00 33 1010.1
20260830224538 102 218 3.0 9.0 0.00 0.00 0.00 32 1010.0
20260830224018 102 178 2.0 8.0 0.00 0.00 0.00 31 1010.0
20260830223517 103 207 3.0 8.0 0.00 0.00 0.00 32 1010.0
20260830223010 103 248 3.0 9.0 0.00 0.00 0.00 31 1010.0
20260830222506 103 254 4.0 11.0 0.00 0.00 0.00 31 1009.9
20260830222012 103 350 3.0 11.0 0.00 0.00 0.00 31 1009.9
20260830221511 103 256 2.0 8.0 0.00 0.00 0.00 31 1009.9
20260830221006 103 220 3.0 9.0 0.00 0.00 0.00 30 1010.0
20260830220508 103 278 4.0 11.0 0.00 0.00 0.00 32 1010.1
20260830220015 103 219 4.0 11.0 0.00 0.00 0.00 31 1010.0
20260830215510 103 254 4.0 14.0 0.00 0.00 0.00 31 1010.1
20260830215015 103 248 3.0 14.0 0.00 0.00 0.00 31 1010.1
20260830214527 103 292 5.0 14.0 0.00 0.00 0.00 30 1010.1
20260830214010 103 312 3.0 10.0 0.00 0.00 0.00 32 1010.3
20260830213511 103 211 3.0 10.0 0.00 0.00 0.00 31 1010.2
20260830213027 103 234 4.0 13.0 0.00 0.00 0.00 30 1010.1
20260830212514 103 271 5.0 14.0 0.00 0.00 0.00 30 1010.1
20260830212016 104 292 4.0 14.0 0.00 0.00 0.00 32 1010.2
20260830211533 103 269 3.0 11.0 0.00 0.00 0.00 32 1010.1
20260830211004 103 253 5.0 12.0 0.00 0.00 0.00 31 1010.2
20260830210506 103 360 4.0 12.0 0.00 0.00 0.00 33 1010.2
20260830210014 103 127 3.0 11.0 0.00 0.00 0.00 31 1010.4
20260830205507 104 247 4.0 10.0 0.00 0.00 0.00 30 1010.5
20260830205013 104 270 3.0 11.0 0.00 0.00 0.00 31 1010.5
20260830204519 104 251 4.0 12.0 0.00 0.00 0.00 31 1010.6
20260830204013 104 269 4.0 12.0 0.00 0.00 0.00 30 1010.6
20260830203511 103 256 2.0 11.0 0.00 0.00 0.00 33 1010.6
20260830203033 103 253 4.0 11.0 0.00 0.00 0.00 31 1010.7
20260830202511 103 340 4.0 16.0 0.00 0.00 0.00 31 1010.7
20260830202018 103 198 4.0 16.0 0.00 0.00 0.00 31 1010.9
20260830201541 103 179 5.0 12.0 0.00 0.00 0.00 31 1010.8
20260830201015 103 273 4.0 10.0 0.00 0.00 0.00 32 1010.8
20260830200516 103 107 2.0 15.0 0.00 0.00 0.00 33 1010.9
20260830200032 103 205 5.0 15.0 0.00 0.00 0.00 31 1011.0
20260830195504 103 302 6.0 15.0 0.00 0.00 0.00 32 1011.1
20260830195012 102 279 4.0 15.0 0.00 0.00 0.00 32 1011.1
20260830194516 103 236 4.0 14.0 0.00 0.00 0.00 32 1011.3
20260830194007 103 227 4.0 12.0 0.00 0.00 0.00 32 1011.4
20260830193510 102 234 4.0 12.0 0.00 0.00 0.00 33 1011.4
20260830193024 102 284 3.0 13.0 0.00 0.00 0.00 34 1011.4
20260830192510 102 261 4.0 13.0 0.00 0.00 0.00 33 1011.5
20260830192016 102 180 4.0 12.0 0.00 0.00 0.00 34 1011.5
20260830191527 102 184 5.0 10.0 0.00 0.00 0.00 33 1011.5
20260830191012 102 303 2.0 10.0 0.00 0.00 0.00 34 1011.5
20260830190516 102 311 4.0 10.0 0.00 0.00 0.00 34 1011.5
20260830190035 101 227 4.0 12.0 0.00 0.00 0.00 35 1011.6
20260830185513 101 178 4.0 12.0 0.00 0.00 0.00 36 1011.6
20260830185016 101 261 3.0 12.0 0.00 0.00 0.00 37 1011.6
20260830184533 100 279 4.0 15.0 0.00 0.00 0.00 36 1011.8
20260830184005 100 264 5.0 15.0 0.00 0.00 0.00 37 1011.9
20260830183506 100 300 4.0 17.0 0.00 0.00 0.00 36 1011.8
20260830183016 100 307 5.0 17.0 0.00 0.00 0.00 37 1011.8
20260830182510 100 302 4.0 15.0 0.00 0.00 0.00 38 1011.8
20260830182008 99 244 4.0 15.0 0.00 0.00 0.00 37 1011.8
20260830181526 99 184 4.0 15.0 0.00 0.00 0.00 37 1012.0
20260830181011 99 201 4.0 12.0 0.00 0.00 0.00 38 1012.1
20260830180503 98 250 4.0 13.0 0.00 0.00 0.00 39 1012.2
20260830180009 98 159 6.0 13.0 0.00 0.00 0.00 39 1012.3
20260830175503 98 239 3.0 12.0 0.00 0.00 0.00 39 1012.5
20260830175004 97 277 4.0 12.0 0.00 0.00 0.00 41 1012.5
20260830174508 97 260 5.0 14.0 0.00 0.00 0.00 40 1012.5
20260830174006 97 255 4.0 14.0 0.00 0.00 0.00 40 1012.7
20260830173507 97 190 5.0 12.0 0.00 0.00 0.00 41 1012.7
20260830173012 96 247 4.0 11.0 0.00 0.00 0.00 42 1012.8
20260830172508 96 69 3.0 12.0 0.00 0.00 0.00 42 1012.9
20260830172015 95 49 3.0 14.0 0.00 0.00 0.00 42 1013.1
20260830171519 95 278 3.0 16.0 0.00 0.00 0.00 44 1013.2
20260830171010 95 272 6.0 16.0 0.00 0.00 0.00 43 1013.2
20260830170502 95 281 2.0 10.0 0.00 0.00 0.00 44 1013.2
20260830170002 94 258 3.0 13.0 0.00 0.00 0.00 44 1013.2
20260830165505 94 242 3.0 13.0 0.00 0.00 0.00 44 1013.3
20260830165003 94 288 3.0 12.0 0.00 0.00 0.00 46 1013.3
20260830164517 93 321 2.0 12.0 0.00 0.00 0.00 46 1013.4
20260830164003 93 242 5.0 13.0 0.00 0.00 0.00 45 1013.3
20260830163505 92 44 4.0 13.0 0.00 0.00 0.00 46 1013.4
20260830163010 92 256 1.0 10.0 0.00 0.00 0.00 47 1013.5
20260830162507 91 210 4.0 12.0 0.00 0.00 0.00 46 1013.5
20260830162006 91 265 4.0 12.0 0.00 0.00 0.00 47 1013.6
20260830161516 90 197 4.0 12.0 0.00 0.00 0.00 48 1013.5
20260830161010 90 259 4.0 11.0 0.00 0.00 0.00 47 1013.5
20260830160510 90 271 4.0 10.0 0.00 0.00 0.00 47 1013.6
20260830160025 90 136 2.0 12.0 0.00 0.00 0.00 48 1013.5
20260830155512 90 291 4.0 12.0 0.00 0.00 0.00 48 1013.5
20260830155003 89 250 4.0 11.0 0.00 0.00 0.00 48 1013.5
20260830154506 89 282 2.0 10.0 0.00 0.00 0.00 50 1013.5
20260830154003 89 155 3.0 10.0 0.00 0.00 0.00 49 1013.5
20260830153506 88 290 4.0 13.0 0.00 0.00 0.00 49 1013.5
20260830153008 88 265 4.0 13.0 0.00 0.00 0.00 50 1013.5
20260830152507 88 255 5.0 11.0 0.00 0.00 0.00 50 1013.5
20260830152004 88 203 3.0 14.0 0.00 0.00 0.00 50 1013.5
20260830151528 87 174 2.0 14.0 0.00 0.00 0.00 52 1013.6
20260830151004 87 259 3.0 14.0 0.00 0.00 0.00 50 1013.5
20260830150510 87 160 4.0 10.0 0.00 0.00 0.00 50 1013.6
20260830150021 87 174 2.0 13.0 0.00 0.00 0.00 52 1013.6
20260830145511 86 303 4.0 13.0 0.00 0.00 0.00 52 1013.5
20260830145015 86 200 4.0 11.0 0.00 0.00 0.00 52 1013.5
20260830144524 85 231 3.0 11.0 0.00 0.00 0.00 53 1013.6
20260830144013 85 261 3.0 13.0 0.00 0.00 0.00 53 1013.6
20260830143503 85 165 2.0 13.0 0.00 0.00 0.00 53 1013.7
20260830143007 84 57 3.0 11.0 0.00 0.00 0.00 54 1013.7
20260830142502 84 244 2.0 11.0 0.00 0.00 0.00 55 1013.7
20260830142003 83 244 3.0 11.0 0.00 0.00 0.00 56 1013.7
20260830141507 82 257 3.0 11.0 0.00 0.00 0.00 57 1013.7
20260830141006 81 302 2.0 7.0 0.00 0.00 0.00 59 1013.8
20260830140506 81 252 2.0 7.0 0.00 0.00 0.00 60 1013.8
20260830140016 80 173 1.0 8.0 0.00 0.00 0.00 59 1013.8
20260830135510 80 169 2.0 9.0 0.00 0.00 0.00 60 1013.8
20260830135007 79 183 2.0 11.0 0.00 0.00 0.00 60 1013.9
20260830134525 79 286 4.0 11.0 0.00 0.00 0.00 60 1014.0
20260830134012 78 266 1.0 6.0 0.00 0.00 0.00 61 1014.0
20260830133510 78 305 1.0 7.0 0.00 0.00 0.00 63 1014.0
20260830133029 78 269 2.0 7.0 0.00 0.00 0.00 62 1014.1
20260830132518 77 118 1.0 6.0 0.00 0.00 0.00 62 1014.1
20260830132003 77 206 1.0 4.0 0.00 0.00 0.00 62 1014.1
20260830131508 77 215 0.0 6.0 0.00 0.00 0.00 63 1014.1
20260830131003 77 280 1.0 7.0 0.00 0.00 0.00 62 1014.1
20260830130506 77 248 2.0 9.0 0.00 0.00 0.00 62 1014.1
20260830130015 77 251 1.0 10.0 0.00 0.00 0.00 62 1013.9
20260830125507 77 223 1.0 10.0 0.00 0.00 0.00 62 1014.0
20260830125007 77 205 0.0 10.0 0.00 0.00 0.00 62 1014.0
20260830124522 76 214 2.0 10.0 0.00 0.00 0.00 62 1014.1
20260830124011 76 240 1.0 6.0 0.00 0.00 0.00 62 1014.0
20260830123511 76 219 1.0 6.0 0.00 0.00 0.00 62 1013.9
20260830123031 76 265 1.0 6.0 0.00 0.00 0.00 62 1013.9
20260830122510 76 306 1.0 6.0 0.00 0.00 0.00 63 1014.0
20260830122014 76 240 2.0 6.0 0.00 0.00 0.00 62 1013.8
20260830121529 76 234 1.0 6.0 0.00 0.00 0.00 62 1013.8
20260830121014 76 169 2.0 6.0 0.00 0.00 0.00 62 1013.8
20260830120504 76 268 1.0 5.0 0.00 0.00 0.00 63 1013.7
20260830120012 76 261 0.0 4.0 0.00 0.00 0.00 63 1013.7
20260830115504 76 155 0.0 4.0 0.00 0.00 0.00 62 1013.8
20260830115008 76 247 0.0 5.0 0.00 0.00 0.00 62 1013.8
20260830114519 76 252 0.0 5.0 0.00 0.00 0.00 63 1013.7
20260830114012 76 325 0.0 5.0 0.00 0.00 0.00 62 1013.7
20260830113510 76 211 1.0 5.0 0.00 0.00 0.00 62 1013.6
20260830113024 76 322 0.0 3.0 0.00 0.00 0.00 62 1013.6
20260830112510 76 140 0.0 4.0 0.00 0.00 0.00 62 1013.6
20260830112012 76 273 0.0 4.0 0.00 0.00 0.00 63 1013.6
20260830111527 76 248 0.0 2.0 0.00 0.00 0.00 62 1013.6
20260830111012 76 180 0.0 3.0 0.00 0.00 0.00 63 1013.6
20260830110515 76 175 0.0 3.0 0.00 0.00 0.00 62 1013.6
20260830110032 76 241 0.0 3.0 0.00 0.00 0.00 63 1013.7
20260830105514 76 302 0.0 3.0 0.00 0.00 0.00 62 1013.8
20260830105015 76 278 0.0 2.0 0.00 0.00 0.00 62 1013.8
20260830104510 76 257 0.0 3.0 0.00 0.00 0.00 62 1013.9
20260830104007 76 257 0.0 3.0 0.00 0.00 0.00 62 1013.8
20260830103506 76 218 0.0 3.0 0.00 0.00 0.00 62 1013.7
20260830103018 76 303 0.0 3.0 0.00 0.00 0.00 62 1013.8
20260830102509 76 109 0.0 2.0 0.00 0.00 0.00 62 1013.8
20260830102011 76 278 0.0 4.0 0.00 0.00 0.00 62 1013.7
20260830101526 76 172 1.0 4.0 0.00 0.00 0.00 62 1013.7
20260830101011 76 217 0.0 3.0 0.00 0.00 0.00 61 1013.8
20260830100516 76 275 0.0 3.0 0.00 0.00 0.00 61 1013.8
20260830100027 76 298 0.0 5.0 0.00 0.00 0.00 61 1013.7
20260830095513 76 175 0.0 5.0 0.00 0.00 0.00 61 1013.6
20260830095015 76 207 0.0 5.0 0.00 0.00 0.00 62 1013.7
20260830094531 76 223 0.0 5.0 0.00 0.00 0.00 61 1013.7
20260830094013 76 279 0.0 3.0 0.00 0.00 0.00 62 1013.6
20260830093513 76 254 0.0 3.0 0.00 0.00 0.00 63 1013.5
20260830093016 76 196 0.0 2.0 0.00 0.00 0.00 63 1013.5
20260830092507 76 196 0.0 1.0 0.00 0.00 0.00 64 1013.5
20260830092009 76 172 0.0 1.0 0.00 0.00 0.00 64 1013.4
20260830091524 76 317 0.0 1.0 0.00 0.00 0.00 63 1013.5
20260830091010 76 317 0.0 0.0 0.00 0.00 0.00 63 1013.5
20260830090502 76 317 0.0 1.0 0.00 0.00 0.00 62 1013.5
20260830090011 77 317 0.0 1.0 0.00 0.00 0.00 62 1013.5
20260830085502 77 333 0.0 0.0 0.00 0.00 0.00 61 1013.4
20260830085003 77 333 0.0 0.0 0.00 0.00 0.00 60 1013.4
20260830084505 77 333 0.0 0.0 0.00 0.00 0.00 60 1013.4
20260830084003 78 333 0.0 1.0 0.00 0.00 0.00 59 1013.3
20260830083503 78 215 0.0 2.0 0.00 0.00 0.00 59 1013.4
20260830083007 78 215 0.0 2.0 0.00 0.00 0.00 59 1013.3
20260830082502 78 215 0.0 1.0 0.00 0.00 0.00 59 1013.3
20260830082003 79 215 0.0 2.0 0.00 0.00 0.00 58 1013.3
20260830081505 79 215 0.0 2.0 0.00 0.00 0.00 58 1013.2
20260830081003 79 215 0.0 0.0 0.00 0.00 0.00 57 1013.2
20260830080503 79 215 0.0 1.0 0.00 0.00 0.00 58 1013.2
20260830080004 79 215 0.0 1.0 0.00 0.00 0.00 57 1013.2
20260830075503 79 220 0.0 2.0 0.00 0.00 0.00 57 1013.1
20260830075003 80 220 0.0 2.0 0.00 0.00 0.00 57 1013.2
20260830074503 80 220 0.0 2.0 0.00 0.00 0.00 56 1013.2
20260830074005 80 240 0.0 2.0 0.00 0.00 0.00 56 1013.1
20260830073502 80 240 0.0 4.0 0.00 0.00 0.00 56 1013.2
20260830073004 80 154 1.0 4.0 0.00 0.00 0.00 55 1013.2
20260830072503 80 273 0.0 4.0 0.00 0.00 0.00 55 1013.1
20260830072003 80 273 0.0 6.0 0.00 0.00 0.00 54 1013.1
20260830071506 81 258 0.0 6.0 0.00 0.00 0.00 55 1013.2
20260830071005 81 265 0.0 2.0 0.00 0.00 0.00 54 1013.4
20260830070503 81 265 1.0 4.0 0.00 0.00 0.00 53 1013.4
20260830070013 81 229 0.0 7.0 0.00 0.00 0.00 53 1013.4
20260830065503 81 297 1.0 7.0 0.00 0.00 0.00 54 1013.4
20260830065003 81 292 0.0 4.0 0.00 0.00 0.00 53 1013.4
20260830064514 82 291 1.0 6.0 0.00 0.00 0.00 53 1013.4
20260830064004 82 175 1.0 6.0 0.00 0.00 0.00 53 1013.3
20260830063504 82 232 0.0 6.0 0.00 0.00 0.00 53 1013.2
20260830063006 82 304 0.0 6.0 0.00 0.00 0.00 52 1013.2
20260830062502 82 252 1.0 6.0 0.00 0.00 0.00 52 1013.2
20260830062003 82 289 0.0 7.0 0.00 0.00 0.00 53 1013.3
20260830061505 82 260 2.0 7.0 0.00 0.00 0.00 52 1013.3
20260830061004 82 313 1.0 6.0 0.00 0.00 0.00 53 1013.3
20260830060506 82 256 2.0 6.0 0.00 0.00 0.00 53 1013.3
20260830060006 82 198 1.0 8.0 0.00 0.00 0.00 53 1013.2
20260830055504 82 131 1.0 8.0 0.00 0.00 0.00 53 1013.2
20260830055003 82 288 1.0 6.0 0.00 0.00 0.00 53 1013.3
20260830054512 82 268 0.0 6.0 0.00 0.00 0.00 53 1013.3
20260830054004 82 244 1.0 6.0 0.00 0.00 0.00 53 1013.4
20260830053502 82 271 0.0 4.0 0.00 0.00 0.00 53 1013.3
20260830053004 82 284 1.0 4.0 0.00 0.00 0.00 53 1013.3
20260830052504 82 225 1.0 4.0 0.00 0.00 0.00 53 1013.4
20260830052003 82 301 0.0 3.0 0.00 0.00 0.00 53 1013.4
20260830051506 82 228 1.0 4.0 0.00 0.00 0.00 53 1013.5
20260830051005 82 275 0.0 4.0 0.00 0.00 0.00 52 1013.4
20260830050504 83 278 0.0 3.0 0.00 0.00 0.00 52 1013.4
20260830050007 83 264 1.0 3.0 0.00 0.00 0.00 52 1013.5
20260830045503 83 200 0.0 5.0 0.00 0.00 0.00 51 1013.4
20260830045003 83 276 0.0 7.0 0.00 0.00 0.00 51 1013.3
20260830044506 83 252 0.0 7.0 0.00 0.00 0.00 51 1013.3
20260830044004 83 269 1.0 8.0 0.00 0.00 0.00 51 1013.3
20260830043504 84 280 2.0 8.0 0.00 0.00 0.00 50 1013.3
20260830043008 84 219 1.0 6.0 0.00 0.00 0.00 50 1013.3
20260830042504 84 245 2.0 6.0 0.00 0.00 0.00 50 1013.3